COSMOS 1275 DEB, 42223

Orbit data source: Space-Track

COSMOS 1275 DEB, 42223 is space debris in LEO originally from a launch on Thu, 04 Jun 1981 UTC launched from the Plesetsk Missile And Space Complex (PKMTR). Debris objects in space refer to the collection of defunct objects orbiting the Earth. Examples of debris include non-operational satellites, rocket bodies, and fragments generated from explosions, collisions, or faulty payload assembly.

Loading next visibility...
Identifier
42223, 1981-053UP
Orbit
LEO
Country
Flag of CISCIS
Related business
Manufacturer
Unknown
Mission
Spacecraft
Bus & Motor
Unknown
Mass
Unknown
Launch date (UTC)
1981-06-04 (44 years ago)
Launch vehicle
Unknown
Launch site
Plesetsk Missile And Space Complex (PKMTR)
Object type
Payload
Rocket body
Debris
Shape & HBR
Unknown shape, 0.1 m
Radar Cross Section
Small (<0.1 m²)

Expand to show TLE details & history
Last TLE update: 1 day ago

TLE from 1 day ago
0 COSMOS 1275 DEB
1 42223U 81053UP  25291.65007354  .00007598  00000-0  26150-2 0  9994
2 42223  82.8635 161.8004 0036296 127.3010 233.1498 14.35508994568464
Epoch: 2025-10-18T15:36Z
TLE epoch observation values (Epoch: 2025-10-18T15:36:06.353Z)
Latitude
-0.00001°
Longitude
-99.60412°
Altitude
791.988 km
Speed
7.449 km/s
True Right ascension
10h 47m 12s
True Declination
0° 00' 00"
Sunlit
Object was in daylight at epoch
Visualization orbit readout
Latitude
Unknown
Longitude
Unknown
Altitude
Unknown
Speed
Unknown
Apparent Right ascension
Unknown
Apparent Declination
Unknown
Sunlit
N/A
Visualization observer readout
Local Sidereal Time
10:04:32
Azimuth
Unknown
Elevation
Unknown
Doppler factor
Unknown
Orbital elements
Apogee altitude
796.391 km
Perigee altitude
744.498 km
Semi-major axis
7,148.581 km
Eccentricity
0.00363
Inclination
82.8635°
RAAN
161.8004°
Arg. of periapsis
127.301°
True anomaly
232.81788°
Mean anomaly
233.1498°
Eccentric anomaly
232.98375°
Mean motion
3.59098 °/min
Orbital period
100.25 mins
BSTAR
0.002615
Loading maneuver chart data...
Computing Atmospheric mass density...

Documentation

Showing up to 5 results
|